Search your local weather  

 

Hazardous Weather Conditions

Flood Advisory issued July 17 at 2:57PM CDT until July 17 at 5:45PM CDT

Current Conditions: HOUSTON, TEXAS

Mostly Cloudy


91.0 F

Last Updated on Jul 17 2024, 02:15 PM CDT
Humidity: 61%
Wind Speed: 0.0 mph
Barometer: 29.97 in
Dewpoint: 75.9 F
Visibility: 10.00 mi
Precip: --
Heat Index: 103.1 F
Wind Chill: NA
Current conditions at:

HOUSTON/INTNL (KIAH)

Lat: 29.97 Lon: -95.35

active severe weather and emergency alerts image weather storm and storm spotter reports image weather observation monitoring service image
Active
Alerts
Storm Reports Weather
Monitoring

5 Day Forecast for HOUSTON, TEXAS (77001)

Wednesday

Chance of T-storms

High 94 °F
Wednesday
Night
Isolated T-storm

Low 78 °F
Thursday

T-storms Likely

High 92 °F
Thursday
Night
Chance of T-storms

Low 76 °F
Friday

T-storms Likely

High 89 °F
Friday
Night
Chance of Scattered T-storms
Low 76 °F
Saturday

T-storms Likely

High 89 °F
Saturday
Night
Isolated T-storm

Low 76 °F
Sunday

T-storms Likely

High 90 °F

Sign-up For Email & Text Message Weather Alert Notification Services



Advertise Here

Observation History for HOUSTON, TEXAS


Time Wind
(mph)
Vis
(mi)
Weather Precip (in) Temperature (F) Relative
Humidity
Wind
Chill
(F)
Heat
Index
(F)
Pressure
Air Dwpt altimeter
(in)
sea level
(mb)
02:15 PM CDT 0.0 10.00 Mostly Cloudy -- 91.0 75.9 61% NA 103.1 29.97 1014.9
01:39 PM CDT 5.8 10.00 Thunderstorms -- 93.0 73.0 52% NA 102.2 30.00 1015.9
11:53 AM CDT W 5.8 10.00 NULL -- 91.0 75.0 60% NA 102.0 30.02 1016.6
10:53 AM CDT W 6.9 10.00 Partly Cloudy -- 90.0 75.0 62% NA 100.6 30.03 1016.9
09:53 AM CDT 4.7 10.00 Partly Cloudy -- 87.1 75.9 70% NA 97.5 30.01 1016.3
08:53 AM CDT SW 5.8 10.00 Partly Cloudy -- 84.9 77.0 77% NA 95.4 30.02 1016.6
07:53 AM CDT 0.0 10.00 Partly Cloudy -- 82.9 77.0 82% NA 91.9 30.00 1015.9
06:53 AM CDT 0.0 10.00 Mostly Clear -- 79.0 77.0 94% NA 83.3 30.00 1015.9
05:53 AM CDT S 3.4 10.00 Mostly Clear -- 79.0 75.9 90% NA 82.9 29.98 1015.2
04:53 AM CDT 0.0 10.00 Mostly Clear -- 81.0 75.9 85% NA 87.3 29.98 1015.2
03:53 AM CDT 0.0 10.00 Mostly Clear -- 82.0 75.9 82% NA 89.4 29.97 1014.9
02:53 AM CDT S 4.7 10.00 Mostly Clear -- 82.0 75.9 82% NA 89.4 29.96 1014.6
01:53 AM CDT 0.0 10.00 Mostly Clear -- 82.0 75.9 82% NA 89.4 29.97 1014.9
12:53 AM CDT S 4.7 10.00 Mostly Clear -- 82.9 75.9 79% NA 91.0 29.96 1014.6
11:53 PM CDT S 5.8 10.00 Mostly Clear -- 84.0 75.9 77% NA 92.8 29.96 1014.6
10:53 PM CDT S 6.9 10.00 Partly Cloudy -- 84.0 75.0 74% NA 91.9 29.96 1014.6
09:53 PM CDT S 8.1 10.00 Partly Cloudy -- 84.9 73.9 70% NA 92.5 29.95 1014.2
08:53 PM CDT S 9.2 10.00 Partly Cloudy -- 87.1 73.9 65% NA 95.4 29.94 1013.6
07:53 PM CDT 11.4 10.00 Partly Cloudy -- 88.0 75.0 66% NA 97.9 29.94 1013.6
06:53 PM CDT SE 15.0 10.00 Partly Cloudy -- 91.0 75.9 61% NA 103.1 29.92 1013.2
05:53 PM CDT SE 12.8 10.00 Partly Cloudy -- 93.0 75.9 58% NA 105.8 29.92 1013.2
04:53 PM CDT 10.00 Partly Cloudy -- 93.9 75.9 56% NA 106.9 29.92 1013.2
03:53 PM CDT SE 3.4 10.00 Partly Cloudy -- 95.0 70.0 44% NA 101.5 29.94 1013.9
02:53 PM CDT 4.7 10.00 Partly Cloudy -- 93.9 72.0 49% NA 102.2 29.96 1014.6

Regional Weather Observation

HOUSTON/INTNL (KIAH)

Mostly Cloudy
91.0 F

HOUSTON/DW HOOKS (KDWH)

Mostly Clear
93.0 F

HOUSTON EXEC (KTME)

Partly Cloudy
93.2 F

HOUSTON/UNIV (KMCJ)

Mostly Cloudy
82.4 F

HOUSTON/SUGAR LA (KSGR)

Partly Cloudy
95.0 F

HOUSTON/HOBBY (KHOU)

Partly Cloudy
93.9 F

Advertise Here


Advertise Here